[[{"header":{"parameterUnit":"m.s-1","parameterCategory":1,"la1":30.2991,"la2":30.254,"lo1":-89.0895,"lo2":-89.0444,"dy":0.0017,"dx":0.0017,"nx":28,"ny":28,"refTime":"2025-08-19T09:00:00:Z","depth":0,"parameterNumber":2,"parameterNumberName":"U-component_of_WINDS"},"data":[0,0,0,0,0,0,0,0,0,0,0,0,0,0,0,0,0,0,0,0,0,0,0,0,0,0,0,0,0,0,0,0,0,0,0,0,0,0,0,0,0,0,0,0,0,0,0,0,0,0,0,0,0,0,0,0,0,0,-2.0527,-2.0527,0,-2.053,-2.053,-2.053,-2.0483,-2.0481,-2.048,-2.0479,-2.0483,-2.0484,-2.0486,0,0,0,0,0,0,0,0,0,0,0,0,0,-2.0483,-2.0484,-2.0527,-2.0527,-2.0527,-2.053,-2.053,-2.053,-2.0483,-2.0481,-2.048,-2.0478,-2.0483,-2.0484,-2.0486,0,0,0,0,0,0,0,0,0,0,0,0,0,-2.0496,-2.0485,-2.0527,-2.0504,-2.0502,-2.053,-2.053,-2.053,-2.0483,-2.0481,-2.0479,-2.0478,-2.0482,-2.0484,-2.0486,-2.0536,0,0,-2.0492,-2.0493,0,0,0,0,0,0,0,0,-2.0495,-2.0497,-2.0507,-2.0505,-2.0503,-2.0504,-2.0516,-2.0532,-2.0484,-2.049,-2.0479,-2.0477,-2.0492,-2.0493,-2.0497,-2.0536,-2.0536,-2.0492,-2.0493,-2.0494,-2.0495,0,0,0,0,0,0,0,-2.0494,-2.0497,-2.0528,-2.0507,-2.0505,-2.0494,-2.0494,-2.0519,-2.0502,-2.049,-2.0486,-2.0487,-2.049,-2.0496,-2.0497,-2.0536,-2.0492,-2.0494,-2.0495,-2.0496,-2.0618,-2.062,0,0,0,0,0,0,-2.0496,-2.0497,-2.0528,-2.0528,-2.0494,-2.0497,-2.0496,-2.0506,-2.0501,-2.0499,-2.0489,-2.0485,-2.0493,-2.0495,-2.0497,-2.0556,-2.0494,-2.0496,-2.0497,-2.0616,-2.0619,-2.0621,0,0,0,0,0,0,-2.0496,-2.05,-2.0528,-2.0511,-2.0514,-2.0499,-2.051,-2.0507,-2.0512,-2.0501,-2.0497,-2.0497,-2.0492,-2.0494,-2.0527,-2.0556,-2.0497,-2.0498,-2.0614,-2.0617,-2.062,-2.0675,0,0,0,0,0,0,-2.0495,-2.05,-2.0518,-2.0512,-2.0515,-2.0557,-2.0512,-2.0508,-2.0515,-2.051,-2.0508,-2.0505,-2.049,-2.0524,-2.0529,-2.0557,-2.05,-2.0611,-2.0615,-2.0619,-2.067,-2.0679,-2.0687,0,0,0,0,0,-2.0493,-2.0533,-2.0519,-2.0523,-2.0538,-2.0559,-2.056,-2.0542,-2.0518,-2.0536,-2.053,-2.0506,-2.0552,-2.0528,-2.0533,-2.0562,-2.0609,-2.0614,-2.0619,-2.0666,-2.0677,-2.0687,0,0,0,0,0,0,-2.0542,-2.0532,-2.0516,-2.0555,-2.0558,-2.0551,-2.0573,-2.0554,-2.0564,-2.0559,-2.0536,-2.0536,-2.0573,-2.0571,-2.0544,-2.0611,-2.0577,-2.0582,-2.0611,-2.0621,-2.063,-2.0629,-2.0502,0,0,0,0,0,-2.0557,-2.0575,-2.0565,-2.06,-2.0603,-2.0588,-2.0597,-2.0582,-2.0585,-2.0586,-2.0581,-2.0585,-2.06,-2.0611,-2.0624,-2.067,-2.0669,-2.0693,-2.0701,-2.0708,-2.0713,-2.0739,-2.0749,-2.0637,-2.0637,-2.0637,0,0,-2.0589,-2.0586,-2.0598,-2.061,-2.0611,-2.063,-2.0589,-2.0611,-2.0626,-2.0589,-2.062,-2.0617,-2.062,-2.0659,-2.0677,-2.0659,-2.0745,-2.0714,-2.072,-2.0721,-2.0744,-2.0755,-2.0765,-2.064,-2.0639,-2.0639,0,0,-2.0657,-2.0656,-2.0685,-2.0687,-2.0689,-2.0679,-2.0687,-2.0683,-2.0679,-2.071,-2.0683,-2.0701,-2.0728,-2.0731,-2.0736,-2.0808,-2.0787,-2.0813,-2.0857,-2.0882,-2.089,-2.0898,-2.0924,-2.0934,-2.0819,-2.0819,-2.0819,0,-2.0696,-2.0723,-2.0703,-2.0727,-2.0734,-2.0703,-2.0733,-2.0736,-2.0743,-2.0748,-2.0728,-2.0763,-2.0762,-2.0803,-2.0821,-2.0826,-2.0834,-2.0813,-2.0891,-2.0898,-2.0905,-2.093,-2.0939,-2.0822,-2.0822,-2.0821,-2.0821,0,-2.0772,-2.0792,-2.0816,-2.0823,-2.0832,-2.086,-2.0845,-2.0857,-2.0843,-2.0836,-2.0868,-2.0867,-2.088,-2.0889,-2.0875,-2.0928,-2.0917,-2.0895,-2.0859,-2.0919,-2.0942,-2.0951,-2.0827,-2.0825,-2.0824,-2.0824,0,0,-2.0869,-2.0866,-2.0875,-2.0878,-2.0879,-2.0894,-2.0921,-2.0934,-2.0945,-2.0952,-2.0974,-2.0998,-2.0978,-2.0984,-2.0971,-2.0992,-2.105,-2.0967,-2.0967,-2.0983,-2.111,-2.1126,-2.1137,-2.1037,-2.1038,-2.104,-2.1109,0,-2.0935,-2.0979,-2.0963,-2.1009,-2.1028,-2.0999,-2.1022,-2.1026,-2.1021,-2.1036,-2.1031,-2.1049,-2.102,-2.1024,-2.1044,-2.1039,-2.1075,-2.1034,-2.1058,-2.1059,-2.1057,-2.1149,-2.1166,-2.1232,-2.1118,-2.112,-2.1121,0,-2.1017,-2.1027,-2.1075,-2.1074,-2.1081,-2.1102,-2.1113,-2.1129,-2.1133,-2.1127,-2.1135,-2.1118,-2.1145,-2.111,-2.1148,-2.112,-2.1129,-2.1129,-2.1131,-2.1132,-2.1093,-2.1153,-2.1253,-2.1263,-2.1134,-2.1133,-2.1132,0,-2.1084,-2.1109,-2.1141,-2.1145,-2.1144,-2.116,-2.116,-2.1162,-2.1172,-2.1182,-2.1188,-2.1202,-2.121,-2.1221,-2.1208,-2.1184,-2.1248,-2.1212,-2.1245,-2.1246,-2.1259,-2.1258,-2.1362,-2.1266,-2.1266,-2.1266,-2.1265,0,-2.1159,-2.1189,-2.1171,-2.119,-2.1224,-2.1206,-2.124,-2.1238,-2.1241,-2.126,-2.1237,-2.1256,-2.1237,-2.1255,-2.1246,-2.1279,-2.1282,-2.1279,-2.1276,-2.1281,-2.1282,-2.1286,-2.1281,-2.1268,-2.1268,-2.1267,-2.1267,0,-2.1238,-2.1227,-2.126,-2.1257,-2.1257,-2.1282,-2.128,-2.1299,-2.1292,-2.1317,-2.1322,-2.1313,-2.1332,-2.1321,-2.1341,-2.1335,-2.1378,-2.1369,-2.1376,-2.1374,-2.1407,-2.1404,-2.1517,-2.1531,-2.1427,-2.1428,-2.1428,0,-2.1286,-2.1309,-2.1309,-2.132,-2.1322,-2.1341,-2.135,-2.1334,-2.1345,-2.1353,-2.1371,-2.1389,-2.1402,-2.1435,-2.1431,-2.1446,-2.1437,-2.1476,-2.1439,-2.1444,-2.1438,-2.1437,-2.1439,-2.1483,-2.1484,-2.1485,-2.1486,0,-2.1374,-2.1367,-2.1382,-2.1395,-2.1407,-2.1417,-2.1425,-2.1436,-2.142,-2.1434,-2.1454,-2.1464,-2.1485,-2.1504,-2.1517,-2.1519,-2.15,-2.1498,-2.1506,-2.1511,-2.1515,-2.1513,-2.1396,-2.1495,-2.1494,-2.1493,-2.1493,-2.1493,-2.1439,-2.1458,-2.1462,-2.1479,-2.1483,-2.1492,-2.1509,-2.1506,-2.1522,-2.1537,-2.1527,-2.1551,-2.1556,-2.1573,-2.1577,-2.1596,-2.1581,-2.1593,-2.1596,-2.1599,-2.1604,-2.1512,-2.1599,-2.1598,-2.1598,-2.1598,-2.1598,0,-2.1525,-2.1526,-2.1543,-2.1555,-2.1569,-2.155,-2.1558,-2.1571,-2.1593,-2.1599,-2.1613,-2.1636,-2.1654,-2.1652,-2.1668,-2.1684,-2.1676,-2.1689,-2.1688,-2.1688,-2.1616,-2.1607,-2.1695,-2.1695,-2.1695,-2.1695,-2.1695,-2.1695,-2.1572,-2.1604,-2.1599,-2.1633,-2.1634,-2.1657,-2.1663,-2.1671,-2.1676,-2.1703,-2.1718,-2.1716,-2.1719,-2.1736,-2.1753,-2.1751,-2.1759,-2.1775,-2.1771,-2.1703,-2.1693,-2.1684,-2.1676,-2.1777,-2.1777,-2.1841,-2.1842,-2.1842]},{"header":{"parameterUnit":"m.s-1","parameterCategory":1,"la1":30.2991,"la2":30.254,"lo1":-89.0895,"lo2":-89.0444,"dy":0.0017,"dx":0.0017,"nx":28,"ny":28,"refTime":"2025-08-19T09:00:00:Z","depth":0,"parameterNumber":3,"parameterNumberName":"V-component_of_WINDS"},"data":[0,0,0,0,0,0,0,0,0,0,0,0,0,0,0,0,0,0,0,0,0,0,0,0,0,0,0,0,0,0,0,0,0,0,0,0,0,0,0,0,0,0,0,0,0,0,0,0,0,0,0,0,0,0,0,0,0,0,3.0366,3.0366,0,3.0414,3.0415,3.0415,3.0451,3.0451,3.0452,3.0452,3.0497,3.0498,3.0499,0,0,0,0,0,0,0,0,0,0,0,0,0,3.0301,3.0302,3.0366,3.0367,3.0367,3.0414,3.0415,3.0415,3.0451,3.0451,3.0452,3.0452,3.0497,3.0498,3.0499,0,0,0,0,0,0,0,0,0,0,0,0,0,3.0337,3.0302,3.0366,3.0391,3.0393,3.0414,3.0415,3.0416,3.0451,3.0451,3.0452,3.0452,3.0497,3.0498,3.0499,3.0498,0,0,3.0504,3.0504,0,0,0,0,0,0,0,0,3.0335,3.0339,3.0386,3.0389,3.0392,3.0427,3.0408,3.0443,3.0451,3.0429,3.0452,3.0452,3.0473,3.0477,3.0485,3.05,3.0502,3.0504,3.0504,3.0505,3.0505,0,0,0,0,0,0,0,3.0332,3.0337,3.0385,3.0387,3.039,3.0398,3.0404,3.0415,3.0448,3.0431,3.0433,3.0439,3.0475,3.0483,3.0486,3.0503,3.0504,3.0505,3.0506,3.0506,3.0519,3.0519,0,0,0,0,0,0,3.0326,3.0335,3.0383,3.0386,3.0364,3.0399,3.0405,3.0415,3.0448,3.0453,3.0438,3.044,3.0481,3.0484,3.0488,3.0488,3.0505,3.0506,3.0507,3.052,3.0519,3.0519,0,0,0,0,0,0,3.0325,3.033,3.0381,3.0361,3.0369,3.0399,3.041,3.0416,3.0424,3.0454,3.0459,3.0441,3.0481,3.0486,3.0495,3.049,3.0507,3.0508,3.052,3.052,3.0519,3.0489,0,0,0,0,0,0,3.0323,3.033,3.033,3.0361,3.0369,3.0389,3.041,3.0417,3.0427,3.043,3.0457,3.0462,3.0482,3.0493,3.0497,3.0492,3.0509,3.0521,3.052,3.0519,3.049,3.0487,3.0484,0,0,0,0,0,3.032,3.0319,3.033,3.0336,3.0371,3.0389,3.0394,3.0417,3.0426,3.0427,3.0446,3.0462,3.049,3.0494,3.0498,3.0494,3.0521,3.052,3.0519,3.0492,3.0488,3.0484,0,0,0,0,0,0,3.0285,3.0324,3.0336,3.0345,3.0364,3.0395,3.0396,3.0412,3.0428,3.043,3.0457,3.0463,3.0469,3.0483,3.0486,3.0494,3.0508,3.0507,3.0485,3.0482,3.0479,3.0475,3.051,0,0,0,0,0,3.0279,3.0292,3.0324,3.0329,3.0337,3.0365,3.0374,3.039,3.041,3.0418,3.0437,3.0455,3.0468,3.0475,3.0489,3.0492,3.0498,3.0491,3.0488,3.0486,3.0485,3.0487,3.0484,3.0515,3.0515,3.0515,0,0,3.0266,3.0288,3.0294,3.0322,3.0339,3.035,3.0372,3.0382,3.0391,3.0419,3.043,3.0444,3.0466,3.0472,3.0476,3.0483,3.0478,3.0484,3.0482,3.0483,3.0486,3.0483,3.048,3.0514,3.0515,3.0515,0,0,3.0247,3.0265,3.0271,3.0287,3.0312,3.0331,3.0332,3.0361,3.0372,3.0384,3.0405,3.0414,3.0436,3.045,3.046,3.0446,3.0461,3.045,3.0434,3.0436,3.0433,3.0431,3.0425,3.0423,3.0449,3.0449,3.0449,0,3.0226,3.0245,3.0272,3.0282,3.0293,3.0321,3.0326,3.034,3.0367,3.0373,3.0382,3.041,3.0426,3.0436,3.0433,3.044,3.0441,3.0447,3.0432,3.043,3.0428,3.0423,3.0421,3.0447,3.0448,3.0448,3.0448,0,3.0219,3.0231,3.0233,3.026,3.0272,3.0279,3.0305,3.0314,3.0329,3.0346,3.0357,3.0377,3.0395,3.0399,3.0413,3.041,3.0414,3.0427,3.0441,3.0423,3.0419,3.0417,3.0445,3.0446,3.0446,3.0447,0,0,3.0179,3.0221,3.0221,3.0233,3.0263,3.0272,3.028,3.0299,3.0305,3.0323,3.033,3.0348,3.0359,3.0371,3.0387,3.0389,3.0376,3.0401,3.0402,3.0395,3.0373,3.0363,3.036,3.0386,3.0386,3.0386,3.0371,0,3.0164,3.0182,3.0206,3.0215,3.0226,3.0253,3.0259,3.0277,3.0293,3.0305,3.0322,3.0334,3.0349,3.0356,3.0359,3.0377,3.0371,3.0378,3.0391,3.0391,3.0385,3.0358,3.0348,3.0333,3.0369,3.0369,3.0369,0,3.015,3.0167,3.0177,3.0206,3.0211,3.0217,3.0236,3.0247,3.0267,3.0279,3.0291,3.0309,3.0318,3.0331,3.0343,3.0347,3.0354,3.0363,3.0363,3.0365,3.0379,3.0358,3.0329,3.0326,3.0366,3.0367,3.0367,0,3.0119,3.0145,3.0154,3.0164,3.0197,3.0201,3.0214,3.0236,3.0245,3.0261,3.0267,3.0284,3.0292,3.0304,3.0325,3.0333,3.0334,3.035,3.0343,3.0343,3.0342,3.0341,3.0312,3.0347,3.0347,3.0347,3.0347,0,3.01,3.0105,3.0141,3.0147,3.0153,3.018,3.0185,3.0201,3.0219,3.0227,3.0251,3.0258,3.0286,3.0296,3.0313,3.0319,3.0323,3.0332,3.0336,3.033,3.0328,3.0334,3.0335,3.0347,3.0347,3.0347,3.0347,0,3.0066,3.0091,3.0103,3.0133,3.0141,3.0144,3.017,3.0176,3.0193,3.0203,3.0207,3.0234,3.0247,3.027,3.0289,3.0301,3.0304,3.0311,3.0297,3.03,3.0292,3.0292,3.0265,3.0262,3.0299,3.0299,3.0298,0,3.0052,3.0057,3.0088,3.0096,3.0109,3.0121,3.0131,3.0158,3.0167,3.019,3.0193,3.0208,3.0222,3.0241,3.0261,3.0276,3.0284,3.0273,3.0286,3.0279,3.0283,3.0282,3.0282,3.027,3.027,3.0269,3.0269,0,3.0024,3.0036,3.005,3.0069,3.008,3.0096,3.0112,3.0117,3.0147,3.0156,3.017,3.018,3.0201,3.0215,3.0232,3.0245,3.0261,3.0265,3.0264,3.0257,3.0248,3.0252,3.0288,3.0265,3.0265,3.0266,3.0266,3.0266,2.9999,3.0004,3.0027,3.0042,3.0058,3.0072,3.008,3.0098,3.0111,3.013,3.0144,3.0157,3.0177,3.0202,3.0214,3.0224,3.0231,3.023,3.023,3.0229,3.0226,3.0247,3.0227,3.0227,3.0227,3.0228,3.0228,0,2.9972,2.9988,3.0001,3.0024,3.0036,3.0051,3.007,3.0079,3.009,3.0107,3.012,3.0136,3.015,3.0172,3.0187,3.0191,3.0198,3.0194,3.0193,3.0196,3.0219,3.0218,3.0187,3.0187,3.0187,3.0187,3.0187,3.0187,2.9959,2.9968,2.9983,3.0,3.0016,3.0029,3.0039,3.0052,3.0066,3.0083,3.0095,3.011,3.0129,3.0146,3.0159,3.0165,3.0169,3.0162,3.017,3.0191,3.0194,3.0198,3.0197,3.0162,3.0162,3.0146,3.0146,3.0145]}]]